Location: Peebles
(55.6412°N, 3.1714°W)
Time: 11:27:26
(UTC+01:00)

OBJECT A - Pass Details

Date: 04 July 2022
Orbit: 611 x 632 km, 97.9° (Epoch: 16 August)

Event Time Altitude Azimuth Distance (km) Brightness Sun altitude
Exits shadow 00:24:51 - 210° (SSW) 2,276 ? -10.7°
Reaches altitude 10° 00:25:43 10° 217° (SW) 1,994 ? -10.7°
Maximum altitude 00:29:07 22° 269° (W) 1,359 ? -10.8°
Drops below altitude 10° 00:32:33 10° 321° (NW) 1,997 ? -10.9°
Sets 00:35:09 0° 337° (NNW) 2,904 ? -11.0°
